Regional Weather Roundup
Issued by NWS Charleston, SC

Current Version | Previous Version | Text Only | Print | Product List | Glossary Off
Versions: 1 2 3 4 5 6 7 8 9 10 11 12 13 14 15 16 17 18 19 20 21 22 23 24 25 26 27 28 29 30 31 32 33 34 35 36 37 38 39 40 41 42 43 44 45 46 47 48 49 50

000
ASUS42 KCHS 100327
RWRCHS

REGIONAL WEATHER ROUNDUP
NATIONAL WEATHER SERVICE CHARLESTON SC
1000 PM EST FRI DEC 09 2016

NOTE: "FAIR" INDICATES FEW OR NO CLOUDS BELOW 12,000 FEET WITH NO
SIGNIFICANT WEATHER AND/OR OBSTRUCTIONS TO VISIBILITY.

NOT ALL STATIONS ARE QUALITY CONTROLLED. USE DATA WITH CAUTION...
ESPECIALLY DEWPOINT OBSERVATIONS.

SCZ027-030-031-034>040-042>050-100400-
...SOUTHEAST SOUTH CAROLINA...

CITY           SKY/WX    TMP DP  RH WIND       PRES   REMARKS
N CHARLESTON   PTCLDY    38  25  59 NE6       30.47S WCI  33
WATERFRONT PRK   N/A     44  32  62 NE9       30.45S
MOUNT PLEASANT FAIR      36  28  75 CALM      30.47S
JOHNS ISLAND   FAIR      37  27  65 N6        30.46F WCI  33
PINOPOLIS        N/A     43  25  49 NE12      30.39S
MONCKS CORNER  FAIR      30  27  86 CALM      30.48R
SUMMERVILLE    FAIR      32  32 100 CALM      30.48S
BEAUFORT MCAS  CLEAR     38  30  73 N3        30.46S
BEAUFORT ARPT  FAIR      37  32  81 N6        30.45F WCI  33
HILTON HEAD IS CLEAR     43  25  49 N9G18     30.45F
WALTERBORO     CLEAR     32 N/A N/A CALM      30.48S
ALLENDALE      FAIR      32  28  86 CALM      30.46S

...SOUTHERN MIDLANDS AND PEE DEE...

CITY           SKY/WX    TMP DP  RH WIND       PRES   REMARKS
GEORGETOWN     NOT AVBL
KINGSTREE      FAIR      28  27  93 CALM      30.48S
ORANGEBURG     CLEAR     30  27  88 CALM      30.47S
BARNWELL       NOT AVBL
AIKEN          FAIR      28  25  86 CALM      30.49R
MANNING        FAIR      28  27  93 CALM      30.48R
COLUMBIA       CLEAR     30  25  81 W3        30.46S
SUMTER         CLEAR     31  23  70 CALM      30.45S
FLORENCE       CLEAR     31  22  69 NE3       30.48R
MYRTLE BEACH   CLEAR     30  23  74 CALM      30.49
N MYRTLE BEACH CLEAR     31  27  85 N3        30.47R

$$

GAZ063-065-086>088-099>101-113>116-118-119-134>141-150-100400-
...SOUTHEAST GEORGIA...

CITY           SKY/WX    TMP DP  RH WIND       PRES   REMARKS
SAVANNAH ARPT  PTCLDY    34  29  82 N6        30.45F WCI  29
HUNTER AAF     CLEAR     41  29  64 CALM      30.42F
FORT STEWART   CLEAR     35  28  78 CALM      30.42F
STATESBORO     CLEAR     32  32 100 CALM      30.46S
SYLVANIA       CLEAR    N/A N/A N/A CALM      30.47S
CLAXTON        FAIR      32  32 100 CALM      30.46S

...CSRA...CENTRAL AND FAR SOUTHEAST GEORGIA...

CITY           SKY/WX    TMP DP  RH WIND       PRES   REMARKS
THOMSON        CLEAR     30  28  95 CALM      30.51R
AUGUSTA-BUSH   CLEAR     31  25  78 CALM      30.47R
AUGUSTA-DANIEL CLEAR     39  19  44 E3        30.46R
SWAINSBORO     FAIR      32  30  93 CALM      30.46F
VIDALIA        CLEAR     36  32  87 CALM      30.45F
EASTMAN        FAIR      29  26  89 N3        30.48S
HAZLEHURST     FAIR      36  35  95 CALM      30.44S
ALMA           CLEAR     39  25  57 CALM      30.43F
WAYCROSS       CLEAR     37  33  84 CALM      30.44S
JESUP          FAIR      34  32  93 CALM      30.44S
BAXLEY         FAIR      36  32  87 N3        30.44S
BRUNSWICK      CLEAR     41  32  70 N3        30.45R
SAINT SIMONS   CLEAR     42  29  59 N3        30.43S

$$

SCZ027-028-034-036>038-045-046-048>050-GAZ119-141-100400-
...LAKE AND SUPPLEMENTAL COASTAL OBSERVATIONS...

STATION/POSITION TIME  TEMP    WIND        PRES    WAVE   SWELL
                       AIR SEA DIR/SP/G            HT/PER HT/PER/DIR
                 (UTC) (F)     (DEG/KT/KT) (MB)    (FT/S) (FT/S/D)
WINYAH BAY       0245   33     320/  4     1031.0S
LAKE MURRAY      0230   37      CALM  /  1 1030.5F
ACE BASIN NERRS  0245   36        CALM     1031.0S
FORT PULASKI     0300   45 60   30/  7/ 10 1030.8
SAPELO ISLAND    0300   40      20/  6     1031.0

$$

ANZ835-935-AMZ111-154-330-350-352-354-370-450-454-472-100400-
...C-MAN AND BUOY OBSERVATIONS...

STATION/POSITION TIME  TEMP    WIND        PRES    WAVE   SWELL
                       AIR SEA DIR/SP/G            HT/PER HT/PER/DIR
                 (UTC) (F)     (DEG/KT/KT) (MB)    (FT/S) (FT/S/D)
BUOY 41004       0250   49 70   10/ 16/ 19 1030.2R   4/ 6
BUOY 41008       0250   51 62   30/ 12/ 16 1030.1F   3/ 7   2/ 90/ 7
FOLLY BEACH CMAN 0300   44      10/ 13/ 15 1031.7R
CAPERS NEARSHORE 0308   45 59   20/ 16/ 21 1031.3S
FRIPP NEARSHORE  0308   48 60   20/ 14/ 19 1030.8F


STATION/POSITION TIME  TEMP    WIND        PRES    WAVE   SWELL
                       AIR SEA DIR/SP/G            HT/PER HT/PER/DIR
                 (UTC) (F)     (DEG/KT/KT) (MB)    (FT/S) (FT/S/D)
5E ST. MARYS GA  0300      64                N/A     3/ 7
FRYING PAN BUOY  0310   45 72  360/ 16/ 19 1030.8
BUOY 41025       0250   43 77  360/ 17/ 23 1029.6S   5/10   3/ 50/10
CAPE LOOKOUT NC  0300   39     350/ 10/ 13 1030.4R
BUOY 41002       0250   58 73  360/ 12/ 17 1026.8R   6/ 7   5/ 10/ 7
BUOY 41010       NOT AVBL
ST AUGUSTINE FL  0300   54 64   20/ 19/ 23 1030.0R


$$



USA.gov is the U.S. government's official web portal to all federal, state and local government web resources and services.